Flag for U.S.A. Weather past 2 weeks in Kennebunk, Maine, U.S.A.

Now
52 °F

Partly cloudy.


Feels Like: 51 °F
Forecast: 50 / 67 °F
Wind: 3 mph from West

Location: Sanford Municipal

Current Time: Sep 16, 2014 at 7:38:06 AM

Latest Report: Sep 16, 2014 at 7:15 AM


Visibility: 10 mi

Pressure: 30.06 "Hg

Humidity: 82%

Dew point: 46 °F

Location of KennebunkLocation

Historic Weather in Kennebunk — Graph

°F

Kennebunk temperature yesterday

Maximum temperature yesterday: 64 °F (at 2:55 PM)
Minimum temperature yesterday: 43 °F (at 6:15 AM)
Average temperature yesterday: 53 °F

Past Weeks' High & Low Weather Summary

 TemperatureHumidityPressure
High88 °F (Sep 1, 12:15 PM)94% (Sep 1, 6:55 AM)30.42 "Hg (Sep 1, 6:55 AM)
Low39 °F (Sep 13, 4:35 AM)34% (Sep 15, 3:35 PM)29.68 "Hg (Sep 3, 1:55 AM)
Average63 °F70%30.08 "Hg
* Reported Sep 1 6:15 AM — Sep 16 6:35 AM, Kennebunk, Weather by CustomWeather, © 2014

Note: Actual official high and low records may vary slightly from our data, if they occured in-between our weather recording intervals... More about our weather records

Advertising

Kennebunk weather history for previous 24 hours

 ConditionsComfort  
Time TempWeatherWind HumidityBarometerVisibility
6:35 AM
Sep 16
52 °FPassing clouds.5 mph82%30.06 "Hg10 mi
6:15 AM52 °FPartly cloudy.6 mph82%30.05 "Hg10 mi
5:55 AM52 °FMostly cloudy.6 mph82%30.06 "Hg10 mi
5:35 AM52 °FOvercast.No wind82%30.06 "Hg10 mi
5:15 AM52 °FOvercast.5 mph82%30.06 "Hg10 mi
4:55 AM52 °FPassing clouds.No wind82%30.06 "Hg10 mi
4:35 AM52 °FPartly cloudy.3 mph82%30.06 "Hg10 mi
3:55 AM52 °FPassing clouds.No wind82%30.07 "Hg10 mi
3:35 AM50 °FPassing clouds.No wind82%30.07 "Hg10 mi
2:55 AM50 °FPartly cloudy.3 mph82%30.07 "Hg10 mi
2:35 AM50 °FMostly cloudy.No wind82%30.09 "Hg10 mi
2:15 AM50 °FPassing clouds.No wind82%30.08 "Hg10 mi
1:55 AM52 °FOvercast.No wind77%30.10 "Hg10 mi
1:35 AM52 °FPassing clouds.3 mph77%30.10 "Hg10 mi
1:15 AM52 °FPassing clouds.6 mph77%30.11 "Hg10 mi
12:55 AM52 °FClear.6 mph77%30.11 "Hg10 mi
12:35 AM52 °FClear.6 mph77%30.11 "Hg10 mi
12:15 AM50 °FClear.5 mph82%30.10 "Hg10 mi
11:55 PM
Sep 15
52 °FClear.3 mph77%30.10 "Hg10 mi
11:35 PM52 °FClear.3 mph77%30.11 "Hg10 mi
11:15 PM52 °FClear.6 mph82%30.11 "Hg10 mi
10:55 PM54 °FClear.6 mph72%30.12 "Hg10 mi
10:35 PM54 °FClear.8 mph77%30.11 "Hg10 mi
10:15 PM54 °FClear.3 mph77%30.11 "Hg10 mi
9:55 PM48 °FClear.3 mph82%30.12 "Hg10 mi
9:15 PM48 °FClear.No wind82%30.12 "Hg10 mi
8:55 PM48 °FClear.No wind82%30.13 "Hg10 mi
8:35 PM48 °FClear.No wind82%30.14 "Hg10 mi
8:15 PM48 °FClear.No wind82%30.13 "Hg10 mi
7:55 PM48 °FClear.No wind82%30.13 "Hg10 mi
7:35 PM48 °FSunny.No wind87%30.13 "Hg10 mi
7:15 PM52 °FSunny.No wind77%30.12 "Hg10 mi
6:55 PM54 °FSunny.No wind72%30.12 "Hg10 mi
6:35 PM57 °FSunny.3 mph63%30.13 "Hg10 mi
6:15 PM57 °FSunny.3 mph63%30.12 "Hg10 mi
5:55 PM59 °FSunny.5 mph59%30.13 "Hg10 mi
5:35 PM61 °FPassing clouds.6 mph55%30.13 "Hg10 mi
5:15 PM61 °FPassing clouds.5 mph52%30.13 "Hg10 mi
4:55 PM61 °FSunny.5 mph55%30.13 "Hg10 mi
4:35 PM61 °FSunny.5 mph55%30.13 "Hg10 mi
4:15 PM64 °FSunny.No wind37%30.13 "Hg10 mi
3:55 PM64 °FSunny.No wind34%30.14 "Hg10 mi
3:35 PM64 °FSunny.6 mph34%30.14 "Hg10 mi
3:15 PM63 °FPassing clouds.5 mph37%30.14 "Hg10 mi
2:55 PM64 °FPartly sunny.6 mph37%30.15 "Hg10 mi
2:35 PM63 °FSunny.No wind39%30.15 "Hg10 mi
1:55 PM63 °FPassing clouds.5 mph37%30.16 "Hg10 mi
1:35 PM63 °FSunny.No wind39%30.17 "Hg10 mi
1:15 PM63 °FPassing clouds.No wind37%30.17 "Hg10 mi
12:55 PM63 °FScattered clouds.6 mph39%30.18 "Hg10 mi
12:35 PM61 °FSunny.No wind39%30.18 "Hg9 mi
11:55 AM61 °FSunny.No wind42%30.20 "Hg10 mi
11:35 AM61 °FSunny.6 mph42%30.20 "Hg10 mi
11:15 AM59 °FSunny.7 mph45%30.21 "Hg10 mi
10:55 AM59 °FScattered clouds.No wind48%30.22 "Hg10 mi
10:15 AM57 °FScattered clouds.5 mph55%30.23 "Hg10 mi
9:55 AM55 °FSunny.7 mph55%30.23 "Hg10 mi
9:35 AM55 °FSunny.No wind55%30.23 "Hg10 mi
9:15 AM55 °FSunny.No wind55%30.24 "Hg10 mi
8:55 AM52 °FSunny.No wind58%30.24 "Hg10 mi
8:35 AM52 °FSunny.3 mph58%30.24 "Hg10 mi
7:55 AM48 °FSunny.No wind71%30.24 "Hg10 mi
7:35 AM48 °FSunny.No wind71%30.24 "Hg10 mi
7:15 AM45 °FClear.No wind76%30.24 "Hg10 mi
Weather by CustomWeather, © 2014

See weather overviewHow to use our weather pages